Total_Precipitation_Accumulation
0.00 0.01 0.01 0.03 0.04 0.03 0.05 0.11 0.12 0.13 0.13 0.18 0.25 0.31 0.50 0.56 0.64 0.68 0.66 0.81 0.93 0.99 1.28 1.49 1.91 2.61 2.93 3.44 3.36 3.04 2.83 2.76 2.73 2.72 2.76 2.78 2.97 3.15 3.28 3.33 3.17 3.09 3.01 3.01
0.00 0.01 0.01 0.01 0.03 0.03 0.04 0.08 0.09 0.11 0.13 0.18 0.28 0.37 0.55 0.67 0.75 0.76 0.74 0.85 0.86 0.90 1.31 1.70 2.08 2.47 2.70 2.83 2.92 3.14 3.16 3.08 2.96 3.02 3.33 3.76 4.00 4.02 4.08 4.01 3.93 3.78 3.67 3.61
0.01 0.00 0.00 0.01 0.02 0.02 0.03 0.04 0.07 0.11 0.16 0.22 0.35 0.54 0.64 0.75 0.86 0.81 0.72 0.78 0.84 0.97 1.23 1.55 1.93 2.21 2.52 2.85 2.95 3.16 3.27 3.41 3.60 3.81 4.04 4.51 4.83 4.79 4.61 4.22 4.02 3.83 3.57 3.43
0.00 0.00 0.00 0.01 0.01 0.02 0.03 0.03 0.06 0.09 0.13 0.24 0.30 0.57 0.75 0.83 0.88 0.84 0.79 0.80 0.92 1.06 1.26 1.40 1.59 1.79 2.06 2.37 2.67 2.93 3.13 3.42 3.86 4.45 4.77 4.91 5.06 4.97 4.79 4.46 4.09 3.71 3.39 3.17
0.00 0.00 0.00 0.01 0.01 0.02 0.03 0.03 0.05 0.07 0.08 0.22 0.29 0.45 0.87 0.97 0.93 0.92 0.91 0.94 1.09 1.09 1.19 1.28 1.26 1.39 1.70 1.97 2.20 2.56 2.90 3.30 3.90 4.41 4.84 5.10 5.07 4.85 4.64 4.22 3.83 3.48 3.19 2.92
0.01 0.01 0.01 0.01 0.02 0.02 0.03 0.04 0.06 0.08 0.12 0.29 0.27 0.38 0.85 1.10 1.04 0.89 0.83 0.94 1.10 1.07 1.02 1.06 1.08 1.16 1.38 1.59 1.85 2.13 2.54 3.13 3.57 4.01 4.42 4.58 4.62 4.54 4.34 3.94 3.60 3.30 3.02 2.75
0.04 0.03 0.02 0.02 0.03 0.03 0.05 0.08 0.20 0.29 0.33 0.35 0.22 0.40 0.89 1.10 1.10 1.02 1.02 1.12 1.09 0.98 0.91 0.99 0.98 1.09 1.33 1.54 1.84 2.11 2.46 2.87 3.09 3.22 3.45 3.70 3.76 3.75 3.73 3.60 3.32 3.01 2.66 2.30
0.09 0.08 0.03 0.02 0.03 0.04 0.05 0.08 0.26 0.43 0.40 0.37 0.36 0.71 1.13 1.16 1.14 1.09 1.04 1.03 0.98 0.95 0.98 1.02 1.09 1.20 1.44 1.60 1.71 1.85 2.05 2.34 2.47 2.45 2.62 2.86 2.99 3.01 2.97 2.82 2.55 2.26 2.03 1.82
0.12 0.11 0.04 0.02 0.03 0.03 0.04 0.05 0.08 0.15 0.20 0.37 0.65 1.06 1.34 1.34 1.34 1.35 1.25 1.12 0.99 0.93 1.01 1.08 1.13 1.21 1.44 1.55 1.62 1.59 1.55 1.67 1.75 1.82 1.89 1.95 2.00 2.03 2.00 1.92 1.79 1.66 1.50 1.33
0.07 0.09 0.05 0.03 0.03 0.03 0.04 0.05 0.07 0.15 0.33 0.52 0.72 1.19 1.72 1.72 1.53 1.47 1.38 1.19 1.08 1.01 1.03 1.09 1.10 1.11 1.15 1.21 1.32 1.32 1.20 1.25 1.29 1.26 1.25 1.28 1.36 1.45 1.42 1.29 1.23 1.20 1.14 1.03
0.05 0.09 0.07 0.06 0.04 0.05 0.05 0.06 0.07 0.14 0.23 0.43 0.74 1.25 1.48 1.65 1.56 1.44 1.37 1.25 1.05 1.02 1.01 0.99 0.99 0.92 0.86 0.85 0.92 1.01 1.00 0.98 0.98 0.98 0.99 0.97 0.98 1.01 1.03 1.01 0.93 0.89 0.84 0.80
0.06 0.10 0.14 0.12 0.09 0.07 0.07 0.07 0.08 0.19 0.23 0.30 0.63 1.24 1.27 1.49 1.67 1.69 1.50 1.34 1.28 1.15 1.09 1.01 1.00 0.94 0.86 0.82 0.83 0.86 0.88 0.90 0.87 0.83 0.86 0.85 0.81 0.77 0.78 0.81 0.81 0.76 0.74 0.73
0.09 0.17 0.35 0.42 0.31 0.18 0.11 0.10 0.10 0.13 0.23 0.34 0.64 1.26 1.32 1.46 1.71 1.73 1.54 1.43 1.40 1.34 1.28 1.18 1.11 1.03 0.94 0.86 0.80 0.76 0.78 0.83 0.80 0.74 0.74 0.72 0.70 0.66 0.65 0.66 0.66 0.64 0.64 0.64
0.09 0.19 0.42 0.70 0.60 0.32 0.18 0.15 0.16 0.19 0.32 0.41 0.61 1.06 1.31 1.47 1.63 1.70 1.63 1.44 1.39 1.42 1.38 1.25 1.16 1.08 0.98 0.90 0.86 0.85 0.81 0.76 0.71 0.68 0.68 0.67 0.69 0.66 0.61 0.57 0.56 0.56 0.56 0.58
0.13 0.24 0.26 0.29 0.30 0.27 0.21 0.19 0.19 0.22 0.28 0.47 0.72 1.05 1.39 1.49 1.67 1.82 1.85 1.70 1.53 1.48 1.42 1.30 1.27 1.21 1.10 1.06 1.01 0.96 0.87 0.79 0.72 0.68 0.67 0.71 0.73 0.72 0.69 0.67 0.64 0.62 0.59 0.54
0.15 0.23 0.26 0.27 0.27 0.28 0.26 0.22 0.21 0.27 0.34 0.50 0.77 1.17 1.44 1.56 1.63 1.74 1.82 1.73 1.62 1.62 1.60 1.62 1.64 1.58 1.43 1.28 1.19 1.08 0.94 0.86 0.80 0.79 0.78 0.78 0.77 0.73 0.70 0.67 0.65 0.65 0.63 0.58
0.14 0.22 0.32 0.34 0.25 0.37 0.56 0.42 0.36 0.41 0.46 0.62 0.89 1.11 1.24 1.41 1.60 1.63 1.65 1.75 1.76 1.83 1.90 1.93 1.87 1.77 1.59 1.48 1.41 1.30 1.15 1.03 0.98 0.95 0.88 0.82 0.75 0.71 0.66 0.59 0.62 0.66 0.62 0.57
0.16 0.28 0.37 0.42 0.46 0.79 0.73 0.43 0.42 0.56 0.67 0.69 0.76 0.84 1.04 1.30 1.45 1.46 1.54 1.74 1.85 1.82 1.81 1.81 1.73 1.66 1.56 1.51 1.43 1.29 1.15 1.07 1.00 0.94 0.86 0.76 0.66 0.65 0.66 0.65 0.66 0.63 0.59 0.55
0.13 0.30 0.47 0.56 0.76 0.83 0.81 0.52 0.48 0.69 0.89 0.70 0.75 0.79 0.93 1.05 1.23 1.50 1.56 1.70 1.87 1.75 1.69 1.74 1.72 1.65 1.61 1.54 1.40 1.30 1.18 1.05 0.99 0.92 0.77 0.65 0.58 0.58 0.58 0.59 0.58 0.56 0.56 0.54
0.15 0.27 0.56 0.71 0.92 1.05 0.94 0.50 0.39 0.69 1.25 0.90 0.87 0.90 0.90 1.00 1.33 1.48 1.43 1.40 1.47 1.52 1.58 1.71 1.79 1.80 1.73 1.60 1.37 1.28 1.15 0.97 0.84 0.70 0.60 0.56 0.54 0.50 0.46 0.46 0.48 0.49 0.51 0.48
0.45 0.49 0.63 0.83 1.13 1.17 0.61 0.33 0.46 1.02 1.26 1.03 0.95 0.97 0.99 1.12 1.21 1.11 1.07 1.18 1.31 1.46 1.58 1.68 1.70 1.67 1.60 1.50 1.31 1.22 1.07 0.90 0.71 0.57 0.52 0.52 0.46 0.38 0.34 0.38 0.43 0.44 0.41 0.40
0.66 0.79 0.86 0.96 1.24 1.30 0.55 0.38 0.64 0.83 0.72 0.68 0.70 0.75 0.80 0.86 0.90 0.96 0.99 1.05 1.13 1.28 1.43 1.51 1.47 1.40 1.29 1.21 1.13 1.07 0.94 0.72 0.56 0.50 0.49 0.48 0.42 0.26 0.23 0.33 0.37 0.36 0.39 0.38
0.64 0.75 0.94 1.12 1.27 0.90 0.50 0.46 0.47 0.52 0.54 0.51 0.57 0.59 0.63 0.69 0.79 0.93 1.05 1.10 1.11 1.09 1.17 1.20 1.11 1.02 1.01 0.97 0.92 0.87 0.74 0.57 0.49 0.48 0.49 0.44 0.37 0.30 0.23 0.27 0.31 0.32 0.33 0.30
0.80 0.64 0.80 0.99 1.03 0.78 0.54 0.47 0.43 0.41 0.40 0.43 0.52 0.56 0.54 0.56 0.61 0.74 0.83 0.91 0.94 0.92 0.91 0.89 0.83 0.77 0.77 0.75 0.72 0.65 0.54 0.49 0.50 0.51 0.47 0.44 0.41 0.34 0.27 0.25 0.21 0.22 0.25 0.26
0.77 0.78 0.94 1.06 1.07 0.88 0.71 0.55 0.44 0.41 0.40 0.45 0.49 0.47 0.45 0.41 0.43 0.50 0.61 0.67 0.69 0.66 0.63 0.63 0.64 0.61 0.56 0.54 0.54 0.50 0.44 0.40 0.47 0.46 0.38 0.33 0.30 0.28 0.29 0.23 0.14 0.12 0.13 0.13
0.59 0.72 0.95 1.13 0.94 0.81 0.71 0.57 0.44 0.40 0.38 0.36 0.33 0.34 0.38 0.38 0.38 0.43 0.51 0.56 0.56 0.52 0.50 0.54 0.56 0.53 0.50 0.49 0.47 0.41 0.34 0.32 0.39 0.39 0.32 0.25 0.21 0.20 0.19 0.23 0.17 0.08 0.05 0.05